Regional Weather Roundup
Issued by NWS New Orleans/Baton Rouge, LA

Home | Current Version | Previous Version | Graphics & Text | Print | Product List | Glossary On
Versions: 1 2 3 4 5 6 7 8 9 10 11 12 13 14 15 16 17 18 19 20 21 22 23 24 25 26 27 28 29 30 31 32 33 34 35 36 37 38 39 40 41 42 43 44 45 46 47 48 49 50
371
ASUS44 KLIX 220601
RWRLIX
NEW ORLEANS REGIONAL WEATHER ROUNDUP
NATIONAL WEATHER SERVICE NEW ORLEANS LA
100 AM CDT FRI AUG 22 2014

NOTE: "FAIR" INDICATES FEW OR NO CLOUDS BELOW 12,000 FEET WITH NO
      SIGNIFICANT WEATHER AND/OR OBSTRUCTIONS TO VISIBILITY.
      SKY/WX - SKY CONDITION AND SIGNIFICANT WEATHER.
      TMP - AIR TEMPERATURE.     DP    - DEWPOINT TEMPERATURE.
      RH  - RELATIVE HUMIDITY.   PRES  - PRESSURE.
      HI  - HEAT INDEX.          WCI   - WIND CHILL INDEX.

*  THESE STATIONS ARE NOT NWS OR FAA STATIONS AND ARE NOT UNDER
   NWS QUALITY CONTROL.

LAZ038-040-048-061>063-065>067-069-220700-
SOUTHEAST LOUISIANA

CITY           SKY/WX    TMP DP  RH WIND       PRES   REMARKS
N.O. AUDUBON   NOT AVBL
N.O. INTL ARPT   N/A     78  74  87 SW5       30.08F
6HR MIN TEMP:  78; 6HR MAX TEMP:  80;

N.O. LAKEFRONT   N/A     80  74  81 SW5       30.09F
6HR MIN TEMP:  79; 6HR MAX TEMP:  83;

N.O. DOWNTOWN*   N/A     81  70  69 CALM      30.09F
6HR MIN TEMP:  81; 6HR MAX TEMP:  84;

SLIDELL          N/A     78  72  81 CALM      30.07F
6HR MIN TEMP:  76; 6HR MAX TEMP:  85;

BATON ROUGE      N/A     75  73  93 NE3       30.09F FOG
6HR MIN TEMP:  75; 6HR MAX TEMP:  78;

BOOTHVILLE       N/A     82  77  84 CALM      30.10F
6HR MIN TEMP:  81; 6HR MAX TEMP:  87;

BELLE CHASSE     N/A     75  72  90 SW3       30.08F
6HR MIN TEMP:  75; 6HR MAX TEMP:  81;

BOGALUSA*        N/A     78  73  83 CALM      30.09F
6HR MIN TEMP:  77; 6HR MAX TEMP:  85;

GALLIANO*      NOT AVBL
NEW ROADS*       N/A     74  73  97 CALM      30.10S FOG
6HR MIN TEMP:  74; 6HR MAX TEMP:  78;

GONZALES*        N/A     75  75 100 CALM      30.08F
6HR MIN TEMP:  75; 6HR MAX TEMP:  78;

HAMMOND*       NOT AVBL
HOUMA*           N/A     74  72  91 CALM      30.09F
6HR MIN TEMP:  74; 6HR MAX TEMP:  81;

PORT FOURCHON* CLEAR     84  77  79 CALM      30.11F

$$

MSZ070-080>082-220700-
SOUTHERN MISSISSIPPI

CITY           SKY/WX    TMP DP  RH WIND       PRES   REMARKS
MCCOMB           N/A     76  73  91 CALM      30.10F
6HR MIN TEMP:  76; 6HR MAX TEMP:  84;

GULFPORT         N/A     80  76  87 CALM      30.07F
6HR MIN TEMP:  80; 6HR MAX TEMP:  88;

BILOXI           N/A     81  76  84 W2        30.08F
6HR MIN TEMP:  81; 6HR MAX TEMP:  88;

PASCAGOULA       N/A     75  75 100 CALM      30.08F
6HR MIN TEMP:  75; 6HR MAX TEMP:  85;


$$

COASTAL OBSERVATIONS
LAKE AND NEARSHORE STATIONS

STATION/POSITION TIME  TEMP    WIND        PRES    WAVE
                       AIR SEA DIR/SP/G            HT/PER
                 (UTC) (F)     (DEG/KT/KT) (MB)    (FT/S)
PASCAGOULA       0500   86     230/  7/  9 1018.3
WAVELAND YACHT   0500   81     280/  3/  4 1018.1
GRAND ISLE       0500   85 89  270/  3/  4 1019.9
SOUTHWEST PASS   0500   85 88  190/  4/  4 1019.6
NEW CANAL        0500   81 84  210/  2/  4 1019.4
SHELL BEACH      0500   80 82  240/  2/  4 1018.9

OFFSHORE STATIONS

STATION/POSITION TIME  TEMP    WIND        PRES    WAVE
                       AIR SEA DIR/SP/G            HT/PER
                 (UTC) (F)     (DEG/KT/KT) (MB)    (FT/S)
64 S DAUPHIN ISL 0547   85 88  240/  4/  6 1019.3

$$




USA.gov is the U.S. government's official web portal to all federal, state and local government web resources and services.